Weather History for Tupelo, MS

Change the Weather History Date:

Friday, October 11, 2013

  Actual Average Record
Temperature  
Mean Temperature 70 °F 65 °F  
Max Temperature 84 °F 77 °F 90 °F (1963)
Min Temperature 56 °F 52 °F 35 °F (2000)
Degree Days  
Heating Degree Days 0 3  
Month to date heating degree days 8 26  
Since 1 July heating degree days 8 38  
Cooling Degree Days 5 3  
Month to date cooling degree days 66 41  
Year to date cooling degree days 1992 1999  
Growing Degree Days 20 (Base 50)    
Moisture  
Dew Point 58 °F    
Average Humidity 72    
Maximum Humidity 100    
Minimum Humidity 43    
Precipitation  
Precipitation 0.00 in 0.13 in 2.53 in (2004)
Month to date precipitation 0.51 1.47  
Year to date precipitation 40.87 41.38  
Snow  
Snow 0.00 in 0.00 in 0.00 in (2002)
Month to date snowfall 0.0 0.0  
Since 1 July snowfall 0.0 0.0  
Since 1 September snowfall 0.0 0.0  
Snow Depth 0.00 in    
Sea Level Pressure  
Sea Level Pressure 30.03 in    
Wind  
Wind Speed 2 mph (SW)    
Max Wind Speed 9 mph    
Max Gust Speed 12 mph    
Visibility 6 miles    
Events      
T = Trace of Precipitation, MM = Missing Value Source: NWS Daily Summary

Daily Weather History Graph

Daily Weather History Graph

Search for Another Location

Airport:

Trip Planner

Search our weather history database for the weather conditions in past years. The results will help you decide how hot, cold, wet, or windy it might be!

Date:

Astronomy

Oct. 11, 2013 Rise Set
Actual Time 6:57 AM CDT 6:25 PM CDT
Civil Twilight 6:32 AM CDT 6:50 PM CDT
Nautical Twilight 6:03 AM CDT 7:19 PM CDT
Astronomical Twilight 5:34 AM CDT 7:48 PM CDT
Moon 1:31 PM CDT (10/11) No Moon Set
Length of Visible Light 12h 18m
Length of Day
11h 28m
Waxing Crescent, 47% of the Moon is Illuminated
Oct 11
Waxing Crescent
Oct 11
First Quarter
Oct 18
Full
Oct 26
Last Quarter
Nov 3
New

Hourly Weather History & Observations

Time (CDT) Temp. Heat Index Dew Point Humidity Pressure Visibility Wind Dir Wind Speed Gust Speed Precip Events Conditions
12:53 AM 61.0 °F - 59.0 °F 93% 30.01 in 7.0 mi Calm Calm - N/A   Clear
1:53 AM 60.1 °F - 57.0 °F 90% 30.02 in 8.0 mi Calm Calm - N/A   Clear
2:01 AM 59.0 °F - 57.2 °F 94% 30.03 in 1.8 mi Calm Calm - N/A   Clear
2:08 AM 59.0 °F - 57.2 °F 94% 30.02 in 4.0 mi Calm Calm - N/A   Clear
2:26 AM 59.0 °F - 57.2 °F 94% 30.02 in 4.0 mi Calm Calm - N/A   Partly Cloudy
2:53 AM 59.0 °F - 57.0 °F 93% 30.01 in 9.0 mi Calm Calm - N/A   Partly Cloudy
3:07 AM 57.2 °F - 55.4 °F 94% 30.02 in 9.0 mi Calm Calm - N/A   Mostly Cloudy
3:28 AM 57.2 °F - 55.4 °F 94% 30.02 in 1.2 mi Calm Calm - N/A   Mostly Cloudy
3:35 AM 57.2 °F - 55.4 °F 94% 30.02 in 0.2 mi Calm Calm - N/A   Unknown
3:48 AM 57.2 °F - 55.4 °F 94% 30.02 in 0.5 mi Calm Calm - N/A   Unknown
3:53 AM 57.0 °F - 55.9 °F 96% 30.02 in 0.2 mi Calm Calm - N/A   Unknown
4:20 AM 57.2 °F - 55.4 °F 94% 30.03 in 0.5 mi Calm Calm - N/A   Unknown
4:28 AM 55.4 °F - 55.4 °F 100% 30.03 in 1.2 mi Calm Calm - N/A   Scattered Clouds
4:36 AM 55.4 °F - 55.4 °F 100% 30.03 in 2.5 mi Calm Calm - N/A   Scattered Clouds
4:43 AM 57.2 °F - 55.4 °F 94% 30.03 in 5.0 mi Calm Calm - N/A   Partly Cloudy
4:53 AM 57.0 °F - 55.9 °F 96% 30.03 in 5.0 mi Calm Calm - N/A   Scattered Clouds
5:02 AM 57.2 °F - 55.4 °F 94% 30.04 in 4.0 mi Calm Calm - N/A   Mostly Cloudy
5:27 AM 57.2 °F - 55.4 °F 94% 30.04 in 6.0 mi Calm Calm - N/A   Mostly Cloudy
5:53 AM 57.0 °F - 55.0 °F 93% 30.04 in 7.0 mi Calm Calm - N/A   Overcast
6:03 AM 55.4 °F - 55.4 °F 100% 30.05 in 1.8 mi NE 3.5 mph - N/A   Overcast
6:13 AM 55.4 °F - 55.4 °F 100% 30.05 in 0.5 mi Calm Calm - N/A   Overcast
6:53 AM 55.9 °F - 55.0 °F 97% 30.06 in 0.5 mi Calm Calm - N/A   Overcast
7:16 AM 57.2 °F - 55.4 °F 94% 30.07 in 1.0 mi Calm Calm - N/A   Mostly Cloudy
7:53 AM 57.9 °F - 57.0 °F 97% 30.06 in 1.0 mi Calm Calm - N/A   Overcast
8:00 AM 57.2 °F - 57.2 °F 100% 30.07 in 3.0 mi Calm Calm - N/A   Overcast
8:31 AM 60.8 °F - 59.0 °F 94% 30.08 in 5.0 mi Calm Calm - N/A   Clear
8:53 AM 64.0 °F - 61.0 °F 90% 30.08 in 5.0 mi Calm Calm - N/A   Clear
9:53 AM 71.1 °F - 63.0 °F 75% 30.08 in 10.0 mi South 4.6 mph - N/A   Clear
10:53 AM 73.9 °F - 62.1 °F 66% 30.07 in 10.0 mi Calm Calm - N/A   Clear
11:53 AM 80.1 °F 81.5 °F 63.0 °F 56% 30.06 in 10.0 mi WSW 4.6 mph - N/A   Partly Cloudy
12:53 PM 81.0 °F 81.7 °F 61.0 °F 50% 30.04 in 10.0 mi Variable 3.5 mph - N/A   Partly Cloudy
1:53 PM 82.0 °F 82.4 °F 60.1 °F 47% 30.01 in 10.0 mi SSW 6.9 mph - N/A   Partly Cloudy
2:53 PM 82.9 °F 82.6 °F 57.9 °F 42% 29.99 in 10.0 mi Variable 3.5 mph - N/A   Mostly Cloudy
3:53 PM 82.9 °F 82.4 °F 57.0 °F 41% 29.99 in 10.0 mi SW 3.5 mph - N/A   Clear
4:53 PM 82.9 °F 82.6 °F 57.9 °F 42% 29.98 in 10.0 mi West 5.8 mph - N/A   Scattered Clouds
5:53 PM 81.0 °F 81.3 °F 59.0 °F 47% 29.98 in 10.0 mi Calm Calm - N/A   Clear
6:53 PM 73.0 °F - 61.0 °F 66% 29.99 in 10.0 mi Calm Calm - N/A   Clear
7:53 PM 70.0 °F - 61.0 °F 73% 29.99 in 10.0 mi Calm Calm - N/A   Clear
8:53 PM 68.0 °F - 62.1 °F 81% 29.99 in 10.0 mi Calm Calm - N/A   Clear
9:53 PM 64.9 °F - 62.1 °F 90% 30.00 in 10.0 mi SSW 3.5 mph - N/A   Clear
10:53 PM 64.0 °F - 61.0 °F 90% 30.00 in 9.0 mi Calm Calm - N/A   Clear
11:53 PM 62.1 °F - 60.1 °F 93% 30.01 in 7.0 mi Calm Calm - N/A   Clear